Regional Weather Roundup
Issued by NWS

Home | Current Version | Previous Version | Graphics & Text | Print | Product List | Glossary Off
Versions: 1 2 3 4 5 6 7 8 9 10 11 12 13 14 15 16 17 18 19 20 21 22 23 24 25 26 27 28 29 30 31 32 33 34 35 36 37 38 39 40 41 42 43 44 45 46 47 48 49 50

000
ASUS43 KTOP 232308
RWRKS

WEATHER ROUNDUP FOR KANSAS
NATIONAL WEATHER SERVICE GOODLAND KS
500 PM CST SUN NOV 23 2014

NOTE:  "FAIR" INDICATES FEW OR NO CLOUDS BELOW 12,000 FEET WITH NO
SIGNIFICANT WEATHER AND/OR OBSTRUCTIONS TO VISIBILITY.

KSZ001>006-013>018-027>032-041>047-240000-
NORTHWEST KANSAS

CITY           SKY/WX    TMP DP  RH WIND       PRES   REMARKS
GOODLAND       CLEAR     43  12  28 N22G31    29.73R
HAYS           CLOUDY    46  23  39 N17       29.63R
HILL CITY      CLOUDY    49  17  28 N21       29.65R
RUSSELL        CLOUDY    44  31  60 N14       29.60R
$$

KSZ061>065-074>080-084>089-240000-
SOUTHWEST KANSAS

CITY           SKY/WX    TMP DP  RH WIND       PRES   REMARKS
DODGE CITY     CLOUDY    46  21  37 N16       29.67R
ELKHART          N/A    N/A N/A N/A MISG        N/A
GARDEN CITY    CLOUDY    46  13  26 N25G32    29.69R
GREAT BEND     CLOUDY    46  28  49 N18       29.62R
LIBERAL        CLOUDY    46  19  34 N21G29    29.72R
PRATT          CLOUDY    43  32  65 N22       29.61R
$$

KSZ066>073-081>083-090>101-240000-
SOUTHEAST KANSAS

CITY           SKY/WX    TMP DP  RH WIND       PRES   REMARKS
CHANUTE        CLOUDY    49  45  86 NW22G32   29.37R
COFFEYVILLE    CLOUDY    56  55  97 NW22G32   29.34R
HUTCHINSON     CLOUDY    42  37  82 N15G25    29.58R
MEDICINE LODGE   N/A     44  36  73 N21G30    29.58R
NEWTON         CLOUDY    39  34  81 N25G35    29.55R WCI  28
PARSONS        HVY RAIN  50  49  96 NW24G36   29.37R FOG
WICHITA INTL   RAIN      43  39  86 N24       29.54R
WICHITA JABRA  RAIN      41  38  89 N24G37    29.52R
WICHITA MCCONL MIX PCPN  41  41 100 N24G37    29.52R FOG
WINFIELD       CLOUDY    43  40  89 N31G39    29.51R
$$

KSZ007>012-019>026-033>040-048>060-102>105-240000-
NORTHEAST KANSAS

CITY           SKY/WX    TMP DP  RH WIND       PRES   REMARKS
CONCORDIA      CLOUDY    43  35  73 N9        29.57R
EMPORIA        LGT RAIN  43  40  89 NW16G30   29.46R
LAWRENCE       CLOUDY    45  41  86 N22G32    29.41R
MANHATTAN      LGT RAIN  42  38  85 N13G24    29.52R
MARYSVILLE     CLOUDY    41  37  87 N16       29.52R
OLATHE IND     CLOUDY    46  43  89 N22G30    29.38R
OLATHE EXE     LGT RAIN  47  45  93 N22G29    29.35R
SALINA         CLOUDY    44  39  82 NW13      29.58R
TOPEKA BILLARD LGT RAIN  46  41  82 NW14G29   29.45R
TOPEKA FORBES  LGT RAIN  46  41  82 N22G30    29.43R
$$


USA.gov is the U.S. government's official web portal to all federal, state and local government web resources and services.